AA9VI-10 Weather Reports


Display with metric or nautical units.
time (UTC)temp
F
wind
direction
speed
MPH
gust
MPH
rain 1hr
in
rain 24hr
in
rain mn
in
humidity
%
barometer
mb
20260903101017 78 0.0 2.0 0.00 0.00 0.00 83 1013.8
20260903100017 78 0.0 1.0 0.00 0.00 0.00 82 1013.8
20260903095017 78 225 1.0 2.0 0.00 0.00 0.00 82 1013.8
20260903094017 78 0.0 3.0 0.00 0.00 0.00 82 1013.8
20260903093017 78 0.0 1.0 0.00 0.00 0.00 81 1013.8
20260903092018 79 0.0 1.0 0.00 0.00 0.00 81 1013.9
20260903091017 79 0.0 1.0 0.00 0.00 0.00 81 1013.9
20260903090017 79 0.0 2.0 0.00 0.00 0.00 81 1013.9
20260903085017 79 0.0 0.0 0.00 0.00 0.00 81 1013.9
20260903084017 79 0.0 2.0 0.00 0.00 0.00 80 1013.7
20260903083017 79 0.0 2.0 0.00 0.00 0.00 81 1013.8
20260903082017 79 0.0 2.0 0.00 0.00 0.00 81 1013.7
20260903081017 79 0.0 1.0 0.00 0.00 0.00 81 1013.6
20260903080017 79 225 1.0 3.0 0.00 0.00 0.00 81 1013.7
20260903075017 79 225 1.0 3.0 0.00 0.00 0.00 81 1013.6
20260903074017 79 203 1.0 2.0 0.00 0.00 0.00 81 1013.6
20260903073017 79 225 2.0 4.0 0.00 0.00 0.00 81 1013.7
20260903072017 80 203 1.0 4.0 0.00 0.00 0.00 81 1013.7
20260903071017 80 203 1.0 3.0 0.00 0.00 0.00 81 1013.8
20260903070017 80 203 2.0 3.0 0.00 0.00 0.00 81 1013.7
20260903065017 80 225 1.0 3.0 0.00 0.00 0.00 80 1013.8
20260903064017 80 203 1.0 2.0 0.00 0.00 0.00 80 1013.8
20260903063017 80 203 1.0 2.0 0.00 0.00 0.00 80 1013.8
20260903062017 80 203 1.0 3.0 0.00 0.00 0.00 80 1013.8
20260903061017 81 225 1.0 3.0 0.00 0.00 0.00 80 1013.9
20260903060017 81 0.0 1.0 0.00 0.00 0.00 80 1013.9
20260903055017 81 225 1.0 4.0 0.00 0.00 0.00 80 1013.9
20260903054017 81 225 1.0 2.0 0.00 0.00 0.00 80 1013.9
20260903053017 81 0.0 2.0 0.00 0.00 0.00 80 1013.8
20260903052017 81 0.0 2.0 0.00 0.00 0.00 80 1013.9
20260903051017 81 0.0 2.0 0.00 0.00 0.00 80 1013.9
20260903050017 81 203 1.0 3.0 0.00 0.00 0.00 80 1013.7
20260903045016 81 225 1.0 3.0 0.00 0.00 0.00 80 1013.6
20260903044016 81 225 1.0 3.0 0.00 0.00 0.00 80 1013.6
20260903043016 81 203 1.0 3.0 0.00 0.00 0.00 79 1013.5
20260903042016 81 225 1.0 3.0 0.00 0.00 0.00 79 1013.5
20260903041016 82 225 1.0 3.0 0.00 0.00 0.00 79 1013.6
20260903040016 82 203 1.0 2.0 0.00 0.00 0.00 79 1013.6
20260903035016 82 0.0 2.0 0.00 0.00 0.00 78 1013.6
20260903034016 82 225 1.0 2.0 0.00 0.00 0.00 78 1013.6
20260903033016 82 0.0 2.0 0.00 0.00 0.00 77 1013.5
20260903032016 83 225 1.0 3.0 0.00 0.00 0.00 77 1013.4
20260903031016 83 203 1.0 3.0 0.00 0.00 0.00 76 1013.5
20260903030016 83 225 1.0 2.0 0.00 0.00 0.00 76 1013.4
20260903025016 83 203 1.0 3.0 0.00 0.00 0.00 75 1013.4
20260903024016 83 0.0 1.0 0.00 0.00 0.00 75 1013.5
20260903023016 83 203 1.0 2.0 0.00 0.00 0.00 75 1013.5
20260903022016 83 0.0 0.0 0.00 0.00 0.00 75 1013.4
20260903021016 83 0.0 0.0 0.00 0.00 0.00 74 1013.4
20260903020016 83 0.0 0.0 0.00 0.00 0.00 73 1013.2
20260903015015 84 0.0 0.0 0.00 0.00 0.00 72 1013.2
20260903014015 84 0.0 0.0 0.00 0.00 0.00 72 1013.1
20260903013016 85 0.0 0.0 0.00 0.00 0.00 70 1013.0
20260903012015 86 0.0 0.0 0.00 0.00 0.00 69 1012.9
20260903011016 86 0.0 0.0 0.00 0.00 0.00 68 1012.9
20260903010016 87 0.0 0.0 0.00 0.00 0.00 67 1012.8
20260903005016 87 0.0 3.0 0.00 0.00 0.00 66 1012.6
20260903004016 88 203 1.0 4.0 0.00 0.00 0.00 65 1012.5
20260903003016 88 203 1.0 4.0 0.00 0.00 0.00 65 1012.4
20260903002016 88 0.0 1.0 0.00 0.00 0.00 64 1012.3
20260903001016 88 180 2.0 5.0 0.00 0.00 0.00 64 1012.3
20260903000016 89 225 3.0 6.0 0.00 0.00 0.00 63 1012.3
20260902235016 89 225 4.0 10.0 0.00 0.00 0.00 63 1012.3
20260902234016 90 203 4.0 9.0 0.00 0.00 0.00 62 1012.4
20260902233016 90 203 2.0 7.0 0.00 0.00 0.00 62 1012.4
20260902232015 90 203 4.0 7.0 0.00 0.00 0.00 61 1012.4
20260902231016 91 203 3.0 7.0 0.00 0.00 0.00 61 1012.4
20260902230016 91 203 2.0 7.0 0.00 0.00 0.00 59 1012.5
20260902225016 92 203 2.0 5.0 0.00 0.00 0.00 56 1012.5
20260902224016 92 225 3.0 7.0 0.00 0.00 0.00 55 1012.6
20260902223016 92 225 3.0 6.0 0.00 0.00 0.00 55 1012.7
20260902222016 92 225 2.0 7.0 0.00 0.00 0.00 56 1012.7
20260902221016 92 203 2.0 7.0 0.00 0.00 0.00 55 1012.7
20260902220016 93 203 3.0 8.0 0.00 0.00 0.00 53 1012.7
20260902215016 93 203 3.0 9.0 0.00 0.00 0.00 53 1012.8
20260902214016 93 180 4.0 9.0 0.00 0.00 0.00 52 1012.8
20260902213016 93 203 4.0 9.0 0.00 0.00 0.00 52 1012.9
20260902212016 93 180 3.0 7.0 0.00 0.00 0.00 51 1012.9
20260902211016 93 203 4.0 9.0 0.00 0.00 0.00 52 1013.1
20260902210016 94 203 4.0 10.0 0.00 0.00 0.00 52 1013.1
20260902205016 94 180 3.0 8.0 0.00 0.00 0.00 54 1013.1
20260902204016 94 203 3.0 9.0 0.00 0.00 0.00 49 1013.0
20260902203016 93 225 3.0 7.0 0.00 0.00 0.00 53 1013.1
20260902202015 94 225 4.0 8.0 0.00 0.00 0.00 53 1013.2
20260902201016 94 225 4.0 9.0 0.00 0.00 0.00 51 1013.3
20260902200016 94 203 4.0 9.0 0.00 0.00 0.00 53 1013.3
20260902195016 94 225 3.0 8.0 0.00 0.00 0.00 53 1013.3
20260902194016 94 203 3.0 8.0 0.00 0.00 0.00 53 1013.3
20260902193016 94 225 3.0 9.0 0.00 0.00 0.00 52 1013.5
20260902192016 94 180 4.0 8.0 0.00 0.00 0.00 50 1013.7
20260902191015 94 203 3.0 9.0 0.00 0.00 0.00 51 1013.6
20260902190016 94 203 4.0 9.0 0.00 0.00 0.00 51 1013.7
20260902185015 93 203 3.0 9.0 0.00 0.00 0.00 53 1013.9
20260902184015 92 180 2.0 7.0 0.00 0.00 0.00 54 1013.8
20260902183015 92 225 3.0 8.0 0.00 0.00 0.00 55 1013.9
20260902182016 92 180 2.0 6.0 0.00 0.00 0.00 56 1014.0
20260902181016 91 225 2.0 8.0 0.00 0.00 0.00 59 1014.0
20260902180016 91 203 3.0 7.0 0.00 0.00 0.00 57 1014.0
20260902175015 92 203 4.0 9.0 0.00 0.00 0.00 54 1014.0
20260902174015 92 225 3.0 7.0 0.00 0.00 0.00 56 1014.0
20260902173015 91 203 3.0 9.0 0.00 0.00 0.00 55 1014.1
20260902172016 92 225 3.0 7.0 0.00 0.00 0.00 54 1014.3
20260902171016 91 225 2.0 8.0 0.00 0.00 0.00 56 1014.3
20260902170016 90 203 4.0 10.0 0.00 0.00 0.00 56 1014.2
20260902165016 89 225 3.0 7.0 0.00 0.00 0.00 60 1014.5
20260902164016 88 203 4.0 9.0 0.00 0.00 0.00 60 1014.5
20260902163016 87 203 2.0 6.0 0.00 0.00 0.00 61 1014.5
20260902162016 87 225 3.0 7.0 0.00 0.00 0.00 63 1014.6
20260902161016 86 203 2.0 8.0 0.00 0.00 0.00 63 1014.6
20260902160016 86 203 1.0 4.0 0.00 0.00 0.00 65 1014.8
20260902155016 85 225 1.0 4.0 0.00 0.00 0.00 66 1014.5
20260902154015 85 203 3.0 7.0 0.00 0.00 0.00 65 1014.6
20260902153016 84 180 1.0 2.0 0.00 0.00 0.00 66 1014.5
20260902152016 84 203 2.0 7.0 0.00 0.00 0.00 68 1014.7
20260902151016 83 203 1.0 4.0 0.00 0.00 0.00 69 1015.0
20260902150015 83 203 1.0 4.0 0.00 0.00 0.00 70 1014.9
20260902145016 82 0.0 3.0 0.00 0.00 0.00 72 1015.0
20260902144015 82 0.0 4.0 0.00 0.00 0.00 72 1014.9
20260902143016 82 0.0 3.0 0.00 0.00 0.00 73 1014.9
20260902142016 81 158 1.0 3.0 0.00 0.00 0.00 73 1014.9
20260902141016 81 0.0 1.0 0.00 0.00 0.00 74 1015.1
20260902140015 81 0.0 2.0 0.00 0.00 0.00 74 1015.2
20260902135015 80 0.0 2.0 0.00 0.00 0.00 74 1015.0
20260902134016 79 203 1.0 4.0 0.00 0.00 0.00 75 1014.9
20260902133015 79 203 1.0 4.0 0.00 0.00 0.00 75 1014.9
20260902132015 79 338 1.0 3.0 0.00 0.00 0.00 76 1015.4
20260902131016 78 225 2.0 4.0 0.00 0.00 0.00 76 1014.9
20260902130015 78 225 1.0 4.0 0.00 0.00 0.00 77 1014.9
20260902125016 78 203 2.0 4.0 0.00 0.00 0.00 77 1014.9
20260902124015 77 225 2.0 5.0 0.00 0.00 0.00 77 1014.8
20260902123015 77 203 2.0 4.0 0.00 0.00 0.00 78 1014.9
20260902122017 77 203 2.0 5.0 0.00 0.00 0.00 79 1014.9
20260902121018 76 225 1.0 3.0 0.00 0.00 0.00 80 1014.8
20260902120017 76 270 1.0 3.0 0.00 0.00 0.00 80 1014.7
20260902115017 76 203 2.0 5.0 0.00 0.00 0.00 80 1014.5
20260902114018 76 225 2.0 5.0 0.00 0.00 0.00 80 1014.5
20260902113018 76 203 2.0 4.0 0.00 0.00 0.00 80 1014.6
20260902112018 76 225 2.0 5.0 0.00 0.00 0.00 80 1014.6
20260902111018 76 203 3.0 4.0 0.00 0.00 0.00 80 1014.6
20260902110017 76 225 3.0 7.0 0.00 0.00 0.00 80 1014.7
20260902105017 76 225 2.0 5.0 0.00 0.00 0.00 80 1014.9
20260902104017 76 225 2.0 3.0 0.00 0.00 0.00 80 1014.8
20260902103017 77 203 2.0 4.0 0.00 0.00 0.00 79 1014.8
20260902102017 77 203 2.0 4.0 0.00 0.00 0.00 79 1014.9